Weather in Rozhdestvenka

Russia / Tyumen Oblast     55°42′10″N   69°59′29″E
temp.,
°C
wind,
m/s
gust,
m/s
humid.,
%
clouds,
%
prec.,
mm/h
press.,
hPa
HPBL,
m
29 june, wed
wed2923:00+8nw369688 0.1 1002143
02:00+7wnw3796100 0.0 1001145
05:00+6nw489622 0.0 1000246
08:00+8nw5888100 0.0 998414
11:00+10nw578397 1.3 9971027
14:00+11nw787775 1.3 9971178
17:00+9wnw687994 1.7 998800
20:00+8wnw61075100 0.0 998577
30 june, thu
thu3023:00+7wnw7138998 0.0 998543
02:00+8wnw81583100 0.0 997777
05:00+8wnw9168613 0.0 997637
08:00+11nw914691 0.0 9981156
11:00+14nw10135719 0.0 10001364
14:00+15nw8126316 0.0 10021694
17:00+16wnw9136310 0.1 10031869
20:00+12nw7147666 0.3 1005848
1 july, fri
fri123:00+11wnw51275100 0.3 1006528
02:00+9wnw51384100 0.0 1007390
05:00+9wnw61480100 0.0 1007564
08:00+11wnw7107242 0.0 1008667
11:00+15nw796688 0.0 10091152
14:00+13wnw71072100 0.0 1010681
17:00+14nw5875100 0.0 1010765
20:00+12wnw478482 0.0 1010289
2 july, sat
sat223:00+8w479671 0.0 1011134
02:00+10w3781100 0.0 1010184
05:00+11w3680100 0.0 1010141
08:00+13w4780100 0.0 1010299
11:00+14w358062 0.0 1010298
14:00+17wnw566668 0.6 10101054
17:00+17nw556114 0.7 10091316
20:00+14wnw338263 0.1 100950
3 july, sun
sun323:00+10wnw22915 0.1 100918
02:00+9w22925 0.0 100814
05:00+10w22905 0.0 100820
08:00+15ssw22755 0.0 1007482
11:00+18n006634 0.7 1005945
14:00+18ene3264100 0.6 10041060
17:00+18e346955 1.1 1002737
20:00+15ene3787100 1.0 1001155